Time,TemperatureF,DewpointF,PressureIn,WindDirection,WindDirectionDegrees,WindSpeedMPH,WindSpeedGustMPH,Humidity,HourlyPrecipIn,Conditions,Clouds,dailyrainin,SoftwareType,DateUTC
2013-02-01 00:01:00,39.0,26.0,-100.00,SE,124,3.0,4.0,60,-99.99,,,-99.99,,2013-02-01 08:01:00,
2013-02-01 00:11:00,39.0,25.0,-100.00,ESE,119,3.0,5.0,58,-99.99,,,-99.99,,2013-02-01 08:11:00,
2013-02-01 00:21:00,38.0,26.0,-100.00,SE,128,3.0,4.0,62,-99.99,,,-99.99,,2013-02-01 08:21:00,
2013-02-01 00:31:00,38.0,26.0,-100.00,SE,125,2.0,4.0,62,-99.99,,,-99.99,,2013-02-01 08:31:00,
2013-02-01 00:42:00,36.0,26.0,-100.00,SE,125,2.0,3.0,66,-99.99,,,-99.99,,2013-02-01 08:42:00,
2013-02-01 00:52:00,34.0,26.0,-100.00,ESE,111,0.0,2.0,73,-99.99,,,-99.99,,2013-02-01 08:52:00,
2013-02-01 01:01:00,35.0,28.0,-100.00,SE,139,1.0,2.0,74,-99.99,,,-99.99,,2013-02-01 09:01:00,
2013-02-01 01:11:00,34.0,27.0,-100.00,ESE,102,1.0,3.0,75,-99.99,,,-99.99,,2013-02-01 09:11:00,
2013-02-01 01:31:00,35.0,27.0,-100.00,SE,144,0.0,1.0,72,-99.99,,,-99.99,,2013-02-01 09:31:00,
2013-02-01 01:41:00,34.0,28.0,-100.00,ESE,103,0.0,2.0,77,-99.99,,,-99.99,,2013-02-01 09:41:00,
2013-02-01 01:51:00,35.0,28.0,-100.00,ESE,111,1.0,3.0,74,-99.99,,,-99.99,,2013-02-01 09:51:00,
2013-02-01 02:01:00,34.0,27.0,-100.00,SE,135,3.0,4.0,76,-99.99,,,-99.99,,2013-02-01 10:01:00,
2013-02-01 02:11:00,34.0,28.0,-100.00,SE,132,3.0,5.0,77,-99.99,,,-99.99,,2013-02-01 10:11:00,
2013-02-01 02:21:00,35.0,27.0,-100.00,East,85,3.0,4.0,73,-99.99,,,-99.99,,2013-02-01 10:21:00,
2013-02-01 02:31:00,36.0,26.0,-100.00,WNW,300,3.0,4.0,68,-99.99,,,-99.99,,2013-02-01 10:31:00,
2013-02-01 02:42:00,34.0,27.0,-100.00,ESE,107,2.0,4.0,75,-99.99,,,-99.99,,2013-02-01 10:42:00,
2013-02-01 02:52:00,34.0,27.0,-100.00,East,95,1.0,3.0,75,-99.99,,,-99.99,,2013-02-01 10:52:00,
2013-02-01 03:01:00,34.0,27.0,-100.00,East,95,1.0,3.0,75,-99.99,,,-99.99,,2013-02-01 11:01:00,
2013-02-01 03:11:00,33.0,26.0,-100.00,NNW,327,1.0,2.0,76,-99.99,,,-99.99,,2013-02-01 11:11:00,
2013-02-01 03:21:00,33.0,27.0,-100.00,ESE,107,1.0,3.0,78,-99.99,,,-99.99,,2013-02-01 11:21:00,
2013-02-01 03:31:00,32.0,28.0,-100.00,East,92,2.0,4.0,84,-99.99,,,-99.99,,2013-02-01 11:31:00,
2013-02-01 03:41:00,32.0,28.0,-100.00,East,92,2.0,4.0,84,-99.99,,,-99.99,,2013-02-01 11:41:00,
2013-02-01 03:53:00,33.0,27.0,-100.00,NE,48,1.0,2.0,78,-99.99,,,-99.99,,2013-02-01 11:53:00,
2013-02-01 04:02:00,33.0,27.0,-100.00,SE,138,2.0,3.0,79,-99.99,,,-99.99,,2013-02-01 12:02:00,
2013-02-01 04:12:00,32.0,27.0,-100.00,ENE,72,1.0,3.0,83,-99.99,,,-99.99,,2013-02-01 12:12:00,
2013-02-01 04:22:00,32.0,27.0,-100.00,ENE,72,1.0,3.0,83,-99.99,,,-99.99,,2013-02-01 12:22:00,
2013-02-01 05:02:00,34.0,27.0,-100.00,SE,133,2.0,3.0,74,-99.99,,,-99.99,,2013-02-01 13:02:00,
2013-02-01 05:11:00,33.0,27.0,-100.00,ESE,110,3.0,4.0,77,-99.99,,,-99.99,,2013-02-01 13:11:00,
2013-02-01 05:21:00,33.0,26.0,-100.00,East,101,1.0,3.0,76,-99.99,,,-99.99,,2013-02-01 13:21:00,
2013-02-01 05:32:00,33.0,26.0,-100.00,West,271,0.0,1.0,76,-99.99,,,-99.99,,2013-02-01 13:32:00,
2013-02-01 05:42:00,31.0,27.0,-100.00,SSE,156,1.0,1.0,84,-99.99,,,-99.99,,2013-02-01 13:42:00,
2013-02-01 05:52:00,31.0,28.0,-100.00,ESE,108,0.0,2.0,87,-99.99,,,-99.99,,2013-02-01 13:52:00,
2013-02-01 06:02:00,31.0,28.0,-100.00,SE,136,2.0,4.0,88,-99.99,,,-99.99,,2013-02-01 14:02:00,
2013-02-01 06:11:00,31.0,28.0,-100.00,SE,127,2.0,2.0,88,-99.99,,,-99.99,,2013-02-01 14:11:00,
2013-02-01 06:31:00,32.0,27.0,-100.00,East,85,2.0,3.0,82,-99.99,,,-99.99,,2013-02-01 14:31:00,
2013-02-01 06:42:00,32.0,26.0,-100.00,ESE,117,2.0,3.0,79,-99.99,,,-99.99,,2013-02-01 14:42:00,
2013-02-01 06:52:00,31.0,26.0,-100.00,SE,126,2.0,3.0,83,-99.99,,,-99.99,,2013-02-01 14:52:00,
2013-02-01 07:02:00,31.0,26.0,-100.00,East,97,1.0,2.0,83,-99.99,,,-99.99,,2013-02-01 15:02:00,
2013-02-01 07:11:00,31.0,26.0,-100.00,ESE,117,2.0,4.0,83,-99.99,,,-99.99,,2013-02-01 15:11:00,
2013-02-01 07:32:00,31.0,26.0,-100.00,East,88,1.0,2.0,83,-99.99,,,-99.99,,2013-02-01 15:32:00,
2013-02-01 07:42:00,33.0,27.0,-100.00,North,-999,0.0,0.0,77,-99.99,,,-99.99,,2013-02-01 15:42:00,
2013-02-01 07:51:00,34.0,27.0,-100.00,East,97,0.0,2.0,75,-99.99,,,-99.99,,2013-02-01 15:51:00,
2013-02-01 08:02:00,34.0,27.0,-100.00,SE,125,2.0,3.0,74,-99.99,,,-99.99,,2013-02-01 16:02:00,
2013-02-01 08:11:00,36.0,28.0,-100.00,ESE,108,3.0,4.0,72,-99.99,,,-99.99,,2013-02-01 16:11:00,
2013-02-01 08:21:00,40.0,28.0,-100.00,NE,43,1.0,2.0,63,-99.99,,,-99.99,,2013-02-01 16:21:00,
2013-02-01 08:32:00,39.0,28.0,-100.00,WNW,294,1.0,2.0,65,-99.99,,,-99.99,,2013-02-01 16:32:00,
2013-02-01 08:42:00,38.0,30.0,-100.00,West,271,1.0,2.0,73,-99.99,,,-99.99,,2013-02-01 16:42:00,
2013-02-01 08:52:00,43.0,30.0,-100.00,WSW,258,1.0,2.0,59,-99.99,,,-99.99,,2013-02-01 16:52:00,
2013-02-01 09:02:00,43.0,30.0,-100.00,WSW,258,1.0,2.0,59,-99.99,,,-99.99,,2013-02-01 17:02:00,
2013-02-01 09:11:00,45.0,30.0,-100.00,WNW,286,1.0,2.0,55,-99.99,,,-99.99,,2013-02-01 17:11:00,
2013-02-01 09:21:00,48.0,30.0,-100.00,WSW,248,0.0,1.0,49,-99.99,,,-99.99,,2013-02-01 17:21:00,
2013-02-01 09:31:00,51.0,28.0,-100.00,SW,227,1.0,1.0,41,-99.99,,,-99.99,,2013-02-01 17:31:00,
2013-02-01 09:41:00,53.0,27.0,-100.00,West,272,1.0,2.0,36,-99.99,,,-99.99,,2013-02-01 17:41:00,
2013-02-01 09:52:00,54.0,26.0,-100.00,West,265,1.0,2.0,33,-99.99,,,-99.99,,2013-02-01 17:52:00,
2013-02-01 10:02:00,56.0,25.0,-100.00,WNW,288,1.0,2.0,30,-99.99,,,-99.99,,2013-02-01 18:02:00,
2013-02-01 10:11:00,58.0,26.0,-100.00,WNW,297,2.0,2.0,29,-99.99,,,-99.99,,2013-02-01 18:11:00,
2013-02-01 10:22:00,60.0,26.0,-100.00,WNW,284,1.0,3.0,27,-99.99,,,-99.99,,2013-02-01 18:22:00,
2013-02-01 10:31:00,63.0,26.0,-100.00,WNW,288,1.0,3.0,24,-99.99,,,-99.99,,2013-02-01 18:31:00,
2013-02-01 10:42:00,63.0,26.0,-100.00,WNW,288,1.0,3.0,24,-99.99,,,-99.99,,2013-02-01 18:42:00,
2013-02-01 10:52:00,66.0,27.0,-100.00,WNW,292,1.0,2.0,23,-99.99,,,-99.99,,2013-02-01 18:52:00,
2013-02-01 11:02:00,67.0,26.0,-100.00,NNE,16,1.0,4.0,21,-99.99,,,-99.99,,2013-02-01 19:02:00,
2013-02-01 11:11:00,67.0,26.0,-100.00,NNW,341,2.0,5.0,21,-99.99,,,-99.99,,2013-02-01 19:11:00,
2013-02-01 11:21:00,67.0,26.0,-100.00,WNW,296,2.0,5.0,21,-99.99,,,-99.99,,2013-02-01 19:21:00,
2013-02-01 11:31:00,68.0,25.0,-100.00,West,263,2.0,5.0,20,-99.99,,,-99.99,,2013-02-01 19:31:00,
2013-02-01 11:41:00,69.0,24.0,-100.00,NNE,23,1.0,5.0,18,-99.99,,,-99.99,,2013-02-01 19:41:00,
2013-02-01 11:51:00,69.0,21.0,-100.00,ESE,117,3.0,8.0,16,-99.99,,,-99.99,,2013-02-01 19:51:00,
2013-02-01 12:01:00,69.0,21.0,-100.00,East,82,4.0,9.0,16,-99.99,,,-99.99,,2013-02-01 20:01:00,
2013-02-01 12:11:00,69.0,18.0,-100.00,ESE,103,2.0,8.0,14,-99.99,,,-99.99,,2013-02-01 20:11:00,
2013-02-01 12:21:00,69.0,18.0,-100.00,NE,52,4.0,7.0,14,-99.99,,,-99.99,,2013-02-01 20:21:00,
2013-02-01 12:31:00,69.0,18.0,-100.00,East,95,2.0,9.0,14,-99.99,,,-99.99,,2013-02-01 20:31:00,
2013-02-01 12:41:00,70.0,17.0,-100.00,SSW,202,3.0,5.0,13,-99.99,,,-99.99,,2013-02-01 20:41:00,
2013-02-01 12:52:00,70.0,19.0,-100.00,ENE,58,3.0,7.0,14,-99.99,,,-99.99,,2013-02-01 20:52:00,
2013-02-01 13:01:00,71.0,19.0,-100.00,SE,134,2.0,7.0,14,-99.99,,,-99.99,,2013-02-01 21:01:00,
2013-02-01 13:11:00,71.0,21.0,-100.00,SSE,164,5.0,12.0,15,-99.99,,,-99.99,,2013-02-01 21:11:00,
2013-02-01 13:21:00,70.0,20.0,-100.00,SE,130,6.0,10.0,15,-99.99,,,-99.99,,2013-02-01 21:21:00,
2013-02-01 13:31:00,69.0,19.0,-100.00,SE,129,8.0,14.0,15,-99.99,,,-99.99,,2013-02-01 21:31:00,
2013-02-01 13:41:00,69.0,19.0,-100.00,SE,129,8.0,14.0,15,-99.99,,,-99.99,,2013-02-01 21:41:00,
2013-02-01 13:52:00,69.0,19.0,-100.00,SE,127,7.0,11.0,15,-99.99,,,-99.99,,2013-02-01 21:52:00,
2013-02-01 14:01:00,69.0,21.0,-100.00,SE,133,9.0,14.0,16,-99.99,,,-99.99,,2013-02-01 22:01:00,
2013-02-01 14:11:00,69.0,21.0,-100.00,SE,143,8.0,13.0,16,-99.99,,,-99.99,,2013-02-01 22:11:00,
2013-02-01 14:21:00,68.0,20.0,-100.00,SE,138,7.0,11.0,16,-99.99,,,-99.99,,2013-02-01 22:21:00,
2013-02-01 14:32:00,69.0,21.0,-100.00,SSE,154,6.0,10.0,16,-99.99,,,-99.99,,2013-02-01 22:32:00,
2013-02-01 14:42:00,69.0,19.0,-100.00,SE,141,7.0,12.0,15,-99.99,,,-99.99,,2013-02-01 22:42:00,
2013-02-01 14:51:00,69.0,19.0,-100.00,ESE,121,5.0,9.0,15,-99.99,,,-99.99,,2013-02-01 22:51:00,
2013-02-01 15:01:00,69.0,18.0,-100.00,ESE,109,6.0,10.0,14,-99.99,,,-99.99,,2013-02-01 23:01:00,
2013-02-01 15:11:00,69.0,19.0,-100.00,SSE,157,4.0,8.0,15,-99.99,,,-99.99,,2013-02-01 23:11:00,
2013-02-01 15:21:00,69.0,19.0,-100.00,ESE,104,5.0,9.0,15,-99.99,,,-99.99,,2013-02-01 23:21:00,
2013-02-01 15:31:00,69.0,19.0,-100.00,SSW,196,3.0,7.0,15,-99.99,,,-99.99,,2013-02-01 23:31:00,
2013-02-01 15:41:00,70.0,20.0,-100.00,SSE,155,4.0,8.0,15,-99.99,,,-99.99,,2013-02-01 23:41:00,
2013-02-01 15:52:00,70.0,20.0,-100.00,SE,126,1.0,6.0,15,-99.99,,,-99.99,,2013-02-01 23:52:00,
2013-02-01 16:01:00,70.0,20.0,-100.00,SSE,147,2.0,6.0,15,-99.99,,,-99.99,,2013-02-02 00:01:00,
2013-02-01 16:11:00,70.0,20.0,-100.00,SW,222,2.0,5.0,15,-99.99,,,-99.99,,2013-02-02 00:11:00,
2013-02-01 16:21:00,70.0,22.0,-100.00,SW,217,3.0,7.0,16,-99.99,,,-99.99,,2013-02-02 00:21:00,
2013-02-01 16:32:00,69.0,25.0,-100.00,SW,216,3.0,7.0,19,-99.99,,,-99.99,,2013-02-02 00:32:00,
2013-02-01 16:41:00,68.0,29.0,-100.00,SW,235,5.0,8.0,23,-99.99,,,-99.99,,2013-02-02 00:41:00,
2013-02-01 16:52:00,67.0,23.0,-100.00,SSW,192,4.0,8.0,19,-99.99,,,-99.99,,2013-02-02 00:52:00,
2013-02-01 17:01:00,67.0,25.0,-100.00,South,180,3.0,7.0,20,-99.99,,,-99.99,,2013-02-02 01:01:00,
2013-02-01 17:11:00,66.0,25.0,-100.00,SSW,192,2.0,4.0,21,-99.99,,,-99.99,,2013-02-02 01:11:00,
2013-02-01 17:21:00,64.0,25.0,-100.00,SW,221,3.0,6.0,23,-99.99,,,-99.99,,2013-02-02 01:21:00,
2013-02-01 17:31:00,63.0,27.0,-100.00,SSW,196,2.0,4.0,25,-99.99,,,-99.99,,2013-02-02 01:31:00,
2013-02-01 17:41:00,62.0,27.0,-100.00,SSE,160,2.0,4.0,26,-99.99,,,-99.99,,2013-02-02 01:41:00,
2013-02-01 17:52:00,60.0,26.0,-100.00,East,95,3.0,5.0,27,-99.99,,,-99.99,,2013-02-02 01:52:00,
2013-02-01 18:01:00,60.0,27.0,-100.00,East,101,1.0,3.0,28,-99.99,,,-99.99,,2013-02-02 02:01:00,
2013-02-01 18:11:00,58.0,27.0,-100.00,ESE,110,3.0,4.0,30,-99.99,,,-99.99,,2013-02-02 02:11:00,
2013-02-01 18:21:00,58.0,27.0,-100.00,ESE,122,2.0,3.0,30,-99.99,,,-99.99,,2013-02-02 02:21:00,
2013-02-01 18:31:00,57.0,27.0,-100.00,ESE,110,2.0,4.0,31,-99.99,,,-99.99,,2013-02-02 02:31:00,
2013-02-01 18:41:00,55.0,26.0,-100.00,East,80,2.0,3.0,33,-99.99,,,-99.99,,2013-02-02 02:41:00,
2013-02-01 18:52:00,55.0,29.0,-100.00,ESE,122,0.0,1.0,37,-99.99,,,-99.99,,2013-02-02 02:52:00,
2013-02-01 19:02:00,54.0,30.0,-100.00,SSE,159,0.0,1.0,40,-99.99,,,-99.99,,2013-02-02 03:02:00,
2013-02-01 19:11:00,52.0,31.0,-100.00,SE,126,2.0,3.0,44,-99.99,,,-99.99,,2013-02-02 03:11:00,
2013-02-01 19:21:00,52.0,31.0,-100.00,SSE,156,1.0,2.0,44,-99.99,,,-99.99,,2013-02-02 03:21:00,
2013-02-01 19:32:00,52.0,30.0,-100.00,SSE,148,1.0,3.0,42,-99.99,,,-99.99,,2013-02-02 03:32:00,
2013-02-01 19:42:00,52.0,29.0,-100.00,ESE,109,1.0,3.0,41,-99.99,,,-99.99,,2013-02-02 03:42:00,
2013-02-01 19:51:00,51.0,29.0,-100.00,NNE,19,1.0,3.0,42,-99.99,,,-99.99,,2013-02-02 03:51:00,
2013-02-01 20:01:00,50.0,32.0,-100.00,NW,323,1.0,3.0,49,-99.99,,,-99.99,,2013-02-02 04:01:00,
2013-02-01 20:11:00,49.0,33.0,-100.00,SE,135,1.0,3.0,53,-99.99,,,-99.99,,2013-02-02 04:11:00,
2013-02-01 20:21:00,49.0,33.0,-100.00,SSE,160,1.0,2.0,54,-99.99,,,-99.99,,2013-02-02 04:21:00,
2013-02-01 20:32:00,48.0,33.0,-100.00,South,169,1.0,2.0,56,-99.99,,,-99.99,,2013-02-02 04:32:00,
2013-02-01 20:41:00,48.0,33.0,-100.00,South,169,1.0,2.0,56,-99.99,,,-99.99,,2013-02-02 04:41:00,
2013-02-01 20:51:00,48.0,33.0,-100.00,East,90,1.0,3.0,55,-99.99,,,-99.99,,2013-02-02 04:51:00,
2013-02-01 21:02:00,48.0,32.0,-100.00,SE,140,1.0,2.0,54,-99.99,,,-99.99,,2013-02-02 05:02:00,
2013-02-01 21:11:00,47.0,33.0,-100.00,ESE,104,2.0,3.0,57,-99.99,,,-99.99,,2013-02-02 05:11:00,
2013-02-01 21:22:00,47.0,32.0,-100.00,ESE,104,2.0,3.0,56,-99.99,,,-99.99,,2013-02-02 05:22:00,
2013-02-01 21:32:00,45.0,32.0,-100.00,ESE,105,2.0,2.0,61,-99.99,,,-99.99,,2013-02-02 05:32:00,
2013-02-01 21:41:00,45.0,32.0,-100.00,ESE,105,2.0,2.0,61,-99.99,,,-99.99,,2013-02-02 05:41:00,
2013-02-01 21:52:00,45.0,33.0,-100.00,ESE,123,2.0,3.0,62,-99.99,,,-99.99,,2013-02-02 05:52:00,
2013-02-01 22:02:00,45.0,32.0,-100.00,SE,128,2.0,3.0,61,-99.99,,,-99.99,,2013-02-02 06:02:00,
2013-02-01 22:11:00,44.0,32.0,-100.00,ESE,117,2.0,4.0,63,-99.99,,,-99.99,,2013-02-02 06:11:00,
2013-02-01 22:21:00,44.0,33.0,-100.00,SE,124,3.0,4.0,64,-99.99,,,-99.99,,2013-02-02 06:21:00,
2013-02-01 22:31:00,44.0,33.0,-100.00,ESE,117,3.0,4.0,66,-99.99,,,-99.99,,2013-02-02 06:31:00,
2013-02-01 22:41:00,44.0,33.0,-100.00,ESE,116,2.0,3.0,64,-99.99,,,-99.99,,2013-02-02 06:41:00,
2013-02-01 22:51:00,44.0,33.0,-100.00,ESE,117,2.0,3.0,65,-99.99,,,-99.99,,2013-02-02 06:51:00,
2013-02-01 23:01:00,45.0,32.0,-100.00,ESE,113,2.0,4.0,61,-99.99,,,-99.99,,2013-02-02 07:01:00,
2013-02-01 23:11:00,44.0,33.0,-100.00,ESE,112,2.0,3.0,64,-99.99,,,-99.99,,2013-02-02 07:11:00,
2013-02-01 23:31:00,44.0,31.0,-100.00,SE,141,2.0,3.0,60,-99.99,,,-99.99,,2013-02-02 07:31:00,
2013-02-01 23:41:00,44.0,33.0,-100.00,SE,126,1.0,2.0,65,-99.99,,,-99.99,,2013-02-02 07:41:00,
2013-02-01 23:51:00,45.0,32.0,-100.00,East,86,1.0,3.0,59,-99.99,,,-99.99,,2013-02-02 07:51:00,